�������l�o���
Date,Time,MP-1(��Sv/h),MP-2(��Sv/h),MP-3(��Sv/h),MP-4(��Sv/h),MP-5(��Sv/h),MP-6(��Sv/h),MP-7(��Sv/h),MP-8(��Sv/h),����,����(m/s),���J
2020/12/17,00:00,0.671,0.966,0.612,1.213,0.853,0.381,0.676,0.636,��,4.9,��
2020/12/17,00:10,0.670,0.968,0.612,1.216,0.852,0.380,0.676,0.637,�k��,5.0,��
2020/12/17,00:20,0.670,0.967,0.613,1.217,0.853,0.380,0.676,0.635,�k��,6.1,��
2020/12/17,00:30,0.668,0.964,0.612,1.214,0.852,0.381,0.674,0.637,���k��,6.5,��
2020/12/17,00:40,0.670,0.965,0.612,1.216,0.854,0.380,0.675,0.634,��,6.7,��
2020/12/17,00:50,0.672,0.967,0.611,1.215,0.854,0.381,0.676,0.635,���쐼,6.7,��
2020/12/17,01:00,0.669,0.964,0.611,1.217,0.854,0.381,0.677,0.636,���쐼,6.0,��
2020/12/17,01:10,0.670,0.965,0.612,1.216,0.853,0.380,0.675,0.637,��,5.6,��
2020/12/17,01:20,0.670,0.964,0.612,1.216,0.852,0.380,0.676,0.637,���k��,4.6,��
2020/12/17,01:30,0.671,0.966,0.610,1.217,0.854,0.380,0.675,0.637,��,5.9,��
2020/12/17,01:40,0.670,0.966,0.612,1.214,0.852,0.380,0.675,0.635,��,5.5,��
2020/12/17,01:50,0.669,0.966,0.612,1.216,0.851,0.380,0.676,0.636,���k��,5.4,��
2020/12/17,02:00,0.670,0.965,0.610,1.215,0.852,0.381,0.675,0.637,��,5.8,��
2020/12/17,02:10,0.670,0.965,0.609,1.217,0.853,0.381,0.674,0.636,��,6.4,��
2020/12/17,02:20,0.670,0.966,0.611,1.218,0.853,0.380,0.677,0.638,��,7.6,��
2020/12/17,02:30,0.671,0.964,0.612,1.217,0.853,0.380,0.675,0.636,��,6.3,��
2020/12/17,02:40,0.670,0.967,0.613,1.215,0.852,0.380,0.675,0.635,��,7.0,��
2020/12/17,02:50,0.669,0.965,0.610,1.217,0.852,0.379,0.676,0.636,��,7.4,��
2020/12/17,03:00,0.669,0.964,0.612,1.215,0.852,0.380,0.676,0.636,��,7.1,��
2020/12/17,03:10,0.667,0.964,0.611,1.213,0.851,0.381,0.676,0.634,���k��,4.6,��
2020/12/17,03:20,0.669,0.966,0.612,1.218,0.851,0.380,0.676,0.636,�k�k��,4.4,��
2020/12/17,03:30,0.670,0.965,0.611,1.215,0.853,0.379,0.676,0.637,�k�k��,4.5,��
2020/12/17,03:40,0.669,0.964,0.613,1.216,0.852,0.380,0.676,0.636,���k��,4.2,��
2020/12/17,03:50,0.670,0.965,0.612,1.216,0.854,0.380,0.675,0.637,�k�k��,3.5,��
2020/12/17,04:00,0.669,0.964,0.611,1.216,0.853,0.381,0.675,0.636,�k�k��,4.0,��
2020/12/17,04:10,0.669,0.962,0.611,1.216,0.853,0.381,0.674,0.636,�k��,3.9,��
2020/12/17,04:20,0.669,0.967,0.611,1.216,0.854,0.379,0.676,0.635,���k��,4.7,��
2020/12/17,04:30,0.670,0.964,0.613,1.218,0.853,0.378,0.675,0.635,�k��,3.5,��
2020/12/17,04:40,0.669,0.965,0.612,1.217,0.852,0.380,0.676,0.636,�k�k��,3.7,��
2020/12/17,04:50,0.669,0.966,0.613,1.216,0.851,0.379,0.673,0.635,�k�k��,3.6,��
2020/12/17,05:00,0.669,0.965,0.612,1.218,0.853,0.381,0.677,0.636,�k�k��,3.8,��
2020/12/17,05:10,0.669,0.966,0.611,1.216,0.852,0.381,0.676,0.635,�k�k��,3.8,��
2020/12/17,05:20,0.670,0.966,0.612,1.217,0.852,0.381,0.674,0.636,�k�k��,3.8,��
2020/12/17,05:30,0.671,0.966,0.611,1.218,0.852,0.379,0.674,0.635,�k�k��,2.9,��
2020/12/17,05:40,0.667,0.964,0.612,1.216,0.850,0.379,0.675,0.635,�k��,1.7,��
2020/12/17,05:50,0.668,0.966,0.610,1.214,0.851,0.380,0.672,0.636,�k,1.2,��
2020/12/17,06:00,0.668,0.964,0.611,1.215,0.854,0.381,0.674,0.635,�k�k��,1.5,��
2020/12/17,06:10,0.668,0.963,0.612,1.216,0.853,0.378,0.676,0.636,�k�k��,0.6,��
2020/12/17,06:20,0.668,0.965,0.611,1.214,0.853,0.379,0.674,0.635,-,CALM,��
2020/12/17,06:30,0.669,0.965,0.612,1.215,0.851,0.380,0.675,0.634,�쐼,1.2,��
2020/12/17,06:40,0.669,0.962,0.612,1.215,0.852,0.380,0.675,0.634,�쐼,1.7,��
2020/12/17,06:50,0.668,0.963,0.612,1.216,0.852,0.379,0.675,0.635,�쐼,1.5,��
2020/12/17,07:00,0.669,0.962,0.611,1.215,0.851,0.379,0.673,0.635,��,1.4,��
2020/12/17,07:10,0.668,0.961,0.612,1.216,0.851,0.379,0.672,0.636,��,1.5,��
2020/12/17,07:20,0.667,0.961,0.612,1.216,0.850,0.378,0.673,0.637,��,1.5,��
2020/12/17,07:30,0.670,0.963,0.611,1.214,0.850,0.379,0.675,0.635,�쐼,2.2,��
2020/12/17,07:40,0.669,0.965,0.612,1.217,0.853,0.379,0.675,0.634,���쐼,3.2,��
2020/12/17,07:50,0.669,0.963,0.610,1.215,0.852,0.379,0.675,0.635,��,3.5,��
2020/12/17,08:00,0.669,0.964,0.612,1.217,0.851,0.380,0.674,0.636,��,4.5,�L
2020/12/17,08:10,0.670,0.966,0.611,1.216,0.853,0.379,0.675,0.636,��,4.8,�L
2020/12/17,08:20,0.668,0.963,0.614,1.216,0.852,0.381,0.674,0.636,��,4.0,�L
2020/12/17,08:30,0.670,0.962,0.611,1.215,0.853,0.381,0.675,0.635,��,2.6,��
2020/12/17,08:40,0.670,0.960,0.612,1.217,0.852,0.381,0.675,0.636,��,2.3,��
2020/12/17,08:50,0.671,0.961,0.612,1.215,0.853,0.380,0.675,0.635,���k��,1.9,��
2020/12/17,09:00,0.672,0.962,0.614,1.218,0.853,0.378,0.675,0.637,���k��,2.3,��
2020/12/17,09:10,0.670,0.962,0.613,1.214,0.853,0.380,0.676,0.635,�쐼,1.9,��
2020/12/17,09:20,0.671,0.962,0.610,1.215,0.850,0.379,0.675,0.637,���k��,1.2,��
2020/12/17,09:30,0.669,0.962,0.612,1.216,0.853,0.379,0.677,0.636,�k��,1.1,��
2020/12/17,09:40,0.671,0.961,0.611,1.214,0.853,0.381,0.675,0.635,���k��,2.3,��
2020/12/17,09:50,0.672,0.964,0.610,1.213,0.857,0.380,0.676,0.635,��,3.0,��
2020/12/17,10:00,0.670,0.960,0.611,1.211,0.853,0.380,0.676,0.634,�k��,2.8,��
2020/12/17,10:10,0.672,0.961,0.611,1.213,0.852,0.381,0.680,0.635,�k��,3.2,��
2020/12/17,10:20,0.671,-,0.610,1.211,0.852,0.382,0.674,0.635,�k��,3.6,��
2020/12/17,10:30,0.670,-,0.611,1.210,0.851,0.379,0.675,0.635,���k��,2.3,��
2020/12/17,10:40,0.672,-,0.611,1.214,0.852,0.380,0.674,0.636,���쐼,2.3,��
2020/12/17,10:50,0.670,-,0.613,1.213,0.854,0.380,0.673,0.636,���쐼,2.8,��
2020/12/17,11:00,0.670,-,0.613,1.216,0.851,0.379,0.675,0.635,���쐼,4.9,��
2020/12/17,11:10,0.670,-,0.612,1.215,0.855,0.379,0.676,0.635,��,5.1,��
2020/12/17,11:20,0.673,-,0.611,1.216,0.853,0.380,0.677,0.637,��,4.0,��
2020/12/17,11:30,0.672,-,0.612,1.216,0.852,0.380,0.676,0.635,���k��,4.4,��
2020/12/17,11:40,0.673,-,0.612,1.214,0.855,0.381,0.676,0.638,���k��,5.3,��
2020/12/17,11:50,0.673,-,0.612,1.212,0.853,0.381,0.677,0.637,��,4.5,��
2020/12/17,12:00,0.673,-,0.614,1.216,0.854,0.380,0.677,0.636,��,3.4,��
2020/12/17,12:10,0.673,-,0.613,1.218,0.855,0.380,0.677,0.637,��,3.7,��
2020/12/17,12:20,0.673,-,0.613,1.216,0.854,0.381,0.676,0.636,���k��,4.1,��
2020/12/17,12:30,0.672,-,0.610,1.217,0.853,0.381,0.677,0.637,�k��,5.3,��
2020/12/17,12:40,0.673,-,0.614,1.216,0.854,0.380,0.677,0.636,�k��,4.9,��
2020/12/17,12:50,0.670,-,0.615,1.216,0.855,0.380,0.677,0.636,���k��,3.7,��
2020/12/17,13:00,0.672,-,0.614,1.217,0.854,0.381,0.676,0.636,���k��,4.0,��
2020/12/17,13:10,0.674,0.962,0.611,1.217,0.855,0.379,0.677,0.637,�k��,2.9,��
2020/12/17,13:20,0.673,0.933,0.612,1.215,0.856,0.380,0.676,0.637,�k,2.8,��
2020/12/17,13:30,0.672,0.913,0.613,1.216,0.854,0.380,0.677,0.635,�k�k��,4.6,��
2020/12/17,13:40,0.672,0.934,0.614,1.219,0.853,0.381,0.677,0.636,�k��,3.9,��
2020/12/17,13:50,0.671,0.961,0.613,1.216,0.855,0.380,0.677,0.636,�k�k��,2.8,��
2020/12/17,14:00,0.673,0.962,0.613,1.217,0.854,0.380,0.676,0.638,�k�k��,3.9,��
2020/12/17,14:10,0.673,0.961,0.613,1.219,0.854,0.380,0.676,0.636,�k�k��,6.2,��
2020/12/17,14:20,0.674,0.963,0.613,1.218,0.853,0.380,0.677,0.636,�k�k��,6.1,��
2020/12/17,14:30,0.672,0.961,0.612,1.219,0.855,0.380,0.677,0.636,�k�k��,4.5,��
2020/12/17,14:40,0.671,0.963,0.613,1.218,0.854,0.379,0.677,0.636,�k�k��,5.6,��
2020/12/17,14:50,0.674,0.962,0.612,1.219,0.855,0.381,0.675,0.636,�k�k��,4.1,��
2020/12/17,15:00,0.673,0.963,0.614,1.218,0.855,0.382,0.677,0.636,�k�k��,4.2,��
2020/12/17,15:10,0.671,0.962,0.610,1.216,0.853,0.382,0.676,0.636,�k�k��,5.2,��
2020/12/17,15:20,0.672,0.965,0.614,1.218,0.854,0.379,0.677,0.637,�k�k��,4.2,��
2020/12/17,15:30,0.671,0.962,0.613,1.217,0.855,0.379,0.677,0.637,�k��,3.9,��
2020/12/17,15:40,0.672,0.963,0.612,1.216,0.855,0.379,0.676,0.635,�k�k��,2.6,��
2020/12/17,15:50,0.671,0.963,0.615,1.217,0.855,0.380,0.676,0.636,�k�k��,3.7,��
2020/12/17,16:00,0.672,0.964,0.612,1.216,0.856,0.379,0.677,0.636,�k��,3.4,��
2020/12/17,16:10,0.672,0.961,0.612,1.216,0.855,0.380,0.677,0.636,�k��,2.6,��
2020/12/17,16:20,0.671,0.961,0.612,1.215,0.854,0.380,0.677,0.636,�k�k��,3.3,��
2020/12/17,16:30,0.670,0.962,0.612,1.218,0.854,0.380,0.677,0.637,�k�k��,2.6,��
2020/12/17,16:40,0.672,0.963,0.612,1.218,0.853,0.379,0.676,0.635,�k��,4.3,��
2020/12/17,16:50,0.668,0.960,0.612,1.218,0.855,0.380,0.676,0.636,�k��,3.4,��
2020/12/17,17:00,0.670,0.963,0.613,1.216,0.856,0.379,0.676,0.634,���k��,3.8,��
2020/12/17,17:10,0.670,0.963,0.613,1.215,0.854,0.380,0.674,0.636,���k��,4.4,��
2020/12/17,17:20,0.669,0.962,0.611,1.216,0.856,0.380,0.675,0.637,���k��,4.0,��
2020/12/17,17:30,0.671,0.961,0.613,1.216,0.852,0.379,0.675,0.636,��,3.9,��
2020/12/17,17:40,0.669,0.961,0.613,1.216,0.853,0.378,0.675,0.635,��,4.6,��
2020/12/17,17:50,0.670,0.964,0.613,1.216,0.851,0.379,0.674,0.635,���k��,3.7,��
2020/12/17,18:00,0.671,0.962,0.612,1.217,0.854,0.380,0.676,0.636,���k��,2.8,��
2020/12/17,18:10,0.670,0.962,0.613,1.217,0.854,0.379,0.675,0.637,�k��,2.2,��
2020/12/17,18:20,0.670,0.961,0.612,1.216,0.854,0.380,0.674,0.636,�k�k��,3.4,��
2020/12/17,18:30,0.669,0.961,0.611,1.215,0.853,0.381,0.675,0.636,�k�k��,3.9,��
2020/12/17,18:40,0.669,0.962,0.613,1.217,0.853,0.379,0.674,0.636,�k�k��,3.8,��
2020/12/17,18:50,0.671,0.963,0.612,1.215,0.852,0.379,0.673,0.636,�k�k��,3.1,��
2020/12/17,19:00,0.670,0.963,0.612,1.216,0.854,0.381,0.673,0.636,���k��,1.5,��
2020/12/17,19:10,0.671,0.961,0.612,1.215,0.855,0.381,0.673,0.635,�k��,0.6,��
2020/12/17,19:20,0.670,0.962,0.612,1.214,0.853,0.381,0.673,0.635,�k�k��,1.5,��
2020/12/17,19:30,0.671,0.963,0.613,1.215,0.854,0.380,0.674,0.633,�k�k��,1.2,��
2020/12/17,19:40,0.670,0.962,0.614,1.214,0.854,0.380,0.674,0.635,�k��,1.5,��
2020/12/17,19:50,0.669,0.963,0.612,1.217,0.851,0.380,0.674,0.637,���k��,1.5,��
2020/12/17,20:00,0.671,0.963,0.612,1.215,0.852,0.379,0.675,0.636,���k��,2.3,��
2020/12/17,20:10,0.669,0.962,0.610,1.217,0.852,0.380,0.673,0.634,��,2.0,��
2020/12/17,20:20,0.672,0.962,0.611,1.216,0.854,0.379,0.674,0.636,���k��,2.6,��
2020/12/17,20:30,0.669,0.964,0.611,1.214,0.853,0.378,0.675,0.636,��,2.6,��
2020/12/17,20:40,0.671,0.962,0.611,1.215,0.852,0.379,0.673,0.635,��,1.4,��
2020/12/17,20:50,0.668,0.962,0.612,1.216,0.852,0.380,0.674,0.635,���k��,1.4,��
2020/12/17,21:00,0.669,0.962,0.612,1.215,0.853,0.379,0.672,0.635,���k��,2.2,��
2020/12/17,21:10,0.670,0.962,0.611,1.216,0.852,0.379,0.675,0.635,�k��,2.2,��
2020/12/17,21:20,0.668,0.961,0.611,1.214,0.854,0.380,0.673,0.635,���k��,1.7,��
2020/12/17,21:30,0.672,0.963,0.611,1.215,0.855,0.381,0.675,0.636,���k��,2.5,��
2020/12/17,21:40,0.671,0.961,0.613,1.214,0.851,0.381,0.674,0.636,��,2.3,��
2020/12/17,21:50,0.670,0.961,0.610,1.215,0.853,0.380,0.674,0.635,���k��,3.4,��
2020/12/17,22:00,0.668,0.963,0.611,1.216,0.853,0.380,0.673,0.634,���k��,2.9,��
2020/12/17,22:10,0.670,0.962,0.613,1.216,0.852,0.380,0.674,0.634,��,3.1,��
2020/12/17,22:20,0.671,0.962,0.611,1.216,0.851,0.380,0.672,0.635,��,3.0,��
2020/12/17,22:30,0.669,0.961,0.611,1.216,0.853,0.380,0.674,0.635,���쐼,0.9,��
2020/12/17,22:40,0.669,0.963,0.611,1.216,0.853,0.379,0.675,0.634,���k��,1.4,��
2020/12/17,22:50,0.670,0.961,0.610,1.216,0.853,0.380,0.673,0.635,��,1.7,��
2020/12/17,23:00,0.671,0.960,0.610,1.216,0.851,0.379,0.675,0.636,�쐼,0.9,��
2020/12/17,23:10,0.669,0.962,0.612,1.215,0.850,0.380,0.675,0.634,���쐼,1.9,��
2020/12/17,23:20,0.670,0.961,0.613,1.218,0.853,0.380,0.675,0.635,��,2.0,��
2020/12/17,23:30,0.670,0.960,0.611,1.213,0.852,0.380,0.674,0.635,��,2.5,��
2020/12/17,23:40,0.669,0.960,0.610,1.215,0.852,0.380,0.674,0.636,���k��,2.6,��
2020/12/17,23:50,0.670,0.963,0.612,1.215,0.852,0.379,0.675,0.635,���k��,2.9,��
